When you browse on this site, cookies collect data to enhance your experience and personalize the content and advertising you see.
Visit our Privacy Policy to learn more. By continuing to use the site, you agree to this use of cookies and data.
  • In United Kingdom
  • List of Countries
  • For 7 days
  • Water Temperature
  • Weather Map
  • Weather Widgets
  • user-avatar
    Login

    Hourly Weather Parakou

    Today, 18 February, Tuesday

    Time Temperature Precipitation Wind Pressure Humidity
    00:00 +22°C° 0 mm 0 mps 727 mmHg 17%
    01:00 +21°C° 0 mm 0 mps 727 mmHg 18%
    02:00 +21°C° 0 mm 0 mps 727 mmHg 19%
    03:00 +20°C° 0 mm 0 mps 727 mmHg 21%
    04:00 +20°C° 0 mm 0 mps 727 mmHg 23%
    05:00 +19°C° 0 mm 0 mps 727 mmHg 26%
    06:00 +19°C° 0 mm 0 mps 727 mmHg 33%
    07:00 +22°C° 0 mm 0 mps 728 mmHg 32%
    08:00 +26°C° 0 mm 0 mps 729 mmHg 31%
    09:00 +30°C° 0 mm 0 mps 729 mmHg 30%
    10:00 +33°C° 0 mm 0 mps 729 mmHg 23%
    11:00 +39°C° 0 mm 1 mps 728 mmHg 17%
    12:00 +42°C° 0 mm 1 mps 728 mmHg 10%
    13:00 +42°C° 0 mm 1 mps 727 mmHg 9%
    14:00 +42°C° 0 mm 1 mps 726 mmHg 9%
    15:00 +42°C° 0 mm 1 mps 725 mmHg 8%
    16:00 +40°C° 0 mm 1 mps 725 mmHg 9%
    17:00 +34°C° 0 mm 0 mps 725 mmHg 11%
    18:00 +31°C° 0 mm 0 mps 725 mmHg 12%
    19:00 +31°C° 0 mm 1 mps 726 mmHg 13%
    20:00 +30°C° 0 mm 1 mps 726 mmHg 14%
    21:00 +28°C° 0 mm 2 mps 727 mmHg 14%
    22:00 +27°C° 0 mm 2 mps 727 mmHg 15%
    23:00 +26°C° 0 mm 2 mps 727 mmHg 15%

    Tomorrow, 19 February, Wednesday

    Time Temperature Precipitation Wind Pressure Humidity
    00:00 +26°C° 0 mm 2 mps 727 mmHg 16%
    01:00 +25°C° 0 mm 1 mps 727 mmHg 20%
    02:00 +23°C° 0 mm 1 mps 726 mmHg 24%
    03:00 +20°C° 0 mm 0 mps 726 mmHg 28%
    04:00 +22°C° 0 mm 1 mps 726 mmHg 31%
    05:00 +22°C° 0 mm 1 mps 726 mmHg 33%
    06:00 +21°C° 0 mm 1 mps 727 mmHg 35%
    07:00 +25°C° 0 mm 1 mps 727 mmHg 29%
    08:00 +28°C° 0 mm 2 mps 728 mmHg 23%
    09:00 +32°C° 0 mm 2 mps 728 mmHg 16%
    10:00 +35°C° 0 mm 2 mps 728 mmHg 14%
    11:00 +38°C° 0 mm 2 mps 727 mmHg 12%
    12:00 +40°C° 0 mm 2 mps 727 mmHg 10%
    13:00 +41°C° 0 mm 2 mps 726 mmHg 9%
    14:00 +41°C° 0 mm 2 mps 725 mmHg 8%
    15:00 +42°C° 0 mm 1 mps 724 mmHg 8%
    16:00 +39°C° 0 mm 1 mps 724 mmHg 9%
    17:00 +36°C° 0 mm 1 mps 724 mmHg 10%
    18:00 +33°C° 0 mm 1 mps 724 mmHg 12%
    19:00 +32°C° 0 mm 1 mps 724 mmHg 13%
    20:00 +30°C° 0 mm 2 mps 725 mmHg 13%
    21:00 +29°C° 0 mm 2 mps 725 mmHg 14%
    22:00 +28°C° 0 mm 2 mps 725 mmHg 15%
    23:00 +27°C° 0 mm 2 mps 725 mmHg 15%

    Day after tomorrow, 20 February, Thursday

    Time Temperature Precipitation Wind Pressure Humidity
    00:00 +26°C° 0 mm 2 mps 725 mmHg 15%
    01:00 +25°C° 0 mm 1 mps 725 mmHg 24%
    02:00 +24°C° 0 mm 1 mps 725 mmHg 32%
    03:00 +23°C° 0 mm 1 mps 725 mmHg 40%
    04:00 +22°C° 0 mm 1 mps 725 mmHg 53%
    05:00 +20°C° 0 mm 0 mps 725 mmHg 65%
    06:00 +19°C° 0 mm 0 mps 725 mmHg 77%
    07:00 +23°C° 0 mm 0 mps 726 mmHg 64%
    08:00 +28°C° 0 mm 1 mps 727 mmHg 51%
    09:00 +32°C° 0 mm 1 mps 728 mmHg 38%
    10:00 +35°C° 0 mm 1 mps 727 mmHg 30%
    11:00 +37°C° 0 mm 1 mps 727 mmHg 22%
    12:00 +41°C° 0 mm 2 mps 726 mmHg 14%
    13:00 +41°C° 0 mm 2 mps 725 mmHg 12%
    14:00 +42°C° 0 mm 1 mps 725 mmHg 11%
    15:00 +43°C° 0 mm 1 mps 724 mmHg 10%
    16:00 +40°C° 0 mm 1 mps 724 mmHg 11%
    17:00 +36°C° 0 mm 1 mps 723 mmHg 12%
    18:00 +34°C° 0 mm 1 mps 723 mmHg 14%
    19:00 +32°C° 0 mm 1 mps 724 mmHg 14%
    20:00 +31°C° 0 mm 1 mps 725 mmHg 15%
    21:00 +29°C° 0 mm 2 mps 725 mmHg 16%
    22:00 +28°C° 0 mm 2 mps 725 mmHg 17%
    23:00 +27°C° 0 mm 2 mps 725 mmHg 19%

    21 February, Friday

    Time Temperature Precipitation Wind Pressure Humidity
    00:00 +26°C° 0 mm 2 mps 725 mmHg 20%
    01:00 +25°C° 0 mm 1 mps 725 mmHg 39%
    02:00 +24°C° 0 mm 1 mps 725 mmHg 58%
    03:00 +23°C° 0 mm 1 mps 725 mmHg 76%
    04:00 +23°C° 0 mm 1 mps 725 mmHg 82%
    05:00 +20°C° 0 mm 0 mps 725 mmHg 88%
    06:00 +20°C° 0 mm 0 mps 726 mmHg 94%
    13:00 +42°C° 0 mm 3 mps 725 mmHg 14%
    14:00 +41°C° 0 mm 2 mps 725 mmHg 12%
    15:00 +42°C° 0 mm 2 mps 724 mmHg 10%
    16:00 +40°C° 0 mm 2 mps 724 mmHg 12%
    17:00 +38°C° 0 mm 2 mps 724 mmHg 13%
    18:00 +34°C° 0 mm 1 mps 724 mmHg 14%
    19:00 +33°C° 0 mm 1 mps 724 mmHg 15%
    20:00 +32°C° 0 mm 2 mps 725 mmHg 16%
    21:00 +31°C° 0 mm 2 mps 725 mmHg 17%
    22:00 +29°C° 0 mm 2 mps 725 mmHg 20%
    23:00 +28°C° 0 mm 2 mps 726 mmHg 23%

    22 February, Saturday

    Time Temperature Precipitation Wind Pressure Humidity
    00:00 +27°C° 0 mm 2 mps 726 mmHg 25%
    01:00 +26°C° 0 mm 2 mps 725 mmHg 43%
    02:00 +25°C° 0 mm 1 mps 725 mmHg 60%
    03:00 +23°C° 0 mm 1 mps 725 mmHg 78%
    04:00 +23°C° 0 mm 1 mps 726 mmHg 83%
    05:00 +21°C° 0 mm 0 mps 726 mmHg 88%
    06:00 +20°C° 0 mm 0 mps 726 mmHg 93%
    07:00 +24°C° 0 mm 0 mps 727 mmHg 75%
    08:00 +29°C° 0 mm 1 mps 728 mmHg 56%
    09:00 +32°C° 0 mm 1 mps 729 mmHg 38%
    10:00 +36°C° 0 mm 2 mps 728 mmHg 30%
    11:00 +38°C° 0 mm 2 mps 728 mmHg 21%
    12:00 +42°C° 0 mm 3 mps 727 mmHg 12%
    13:00 +42°C° 0 mm 3 mps 726 mmHg 11%
    14:00 +43°C° 0 mm 3 mps 725 mmHg 9%
    15:00 +44°C° 0 mm 3 mps 724 mmHg 8%
    16:00 +40°C° 0 mm 2 mps 724 mmHg 10%
    17:00 +38°C° 0 mm 2 mps 725 mmHg 11%
    18:00 +36°C° 0 mm 2 mps 725 mmHg 13%
    19:00 +34°C° 0 mm 2 mps 725 mmHg 13%
    20:00 +32°C° 0 mm 2 mps 726 mmHg 14%
    21:00 +31°C° 0 mm 2 mps 726 mmHg 15%
    22:00 +30°C° 0 mm 2 mps 727 mmHg 16%
    23:00 +29°C° 0 mm 2 mps 727 mmHg 17%

    23 February, Sunday

    Time Temperature Precipitation Wind Pressure Humidity
    00:00 +28°C° 0 mm 1 mps 727 mmHg 18%
    01:00 +26°C° 0 mm 1 mps 727 mmHg 33%
    02:00 +25°C° 0 mm 1 mps 726 mmHg 48%
    03:00 +24°C° 0 mm 1 mps 726 mmHg 63%
    04:00 +23°C° 0 mm 1 mps 726 mmHg 72%
    05:00 +21°C° 0 mm 0 mps 727 mmHg 82%
    06:00 +20°C° 0 mm 0 mps 727 mmHg 91%
    07:00 +25°C° 0 mm 1 mps 728 mmHg 73%
    08:00 +29°C° 0 mm 1 mps 729 mmHg 56%
    09:00 +32°C° 0 mm 1 mps 729 mmHg 38%
    10:00 +36°C° 0 mm 2 mps 729 mmHg 29%
    11:00 +38°C° 0 mm 2 mps 728 mmHg 20%
    12:00 +40°C° 0 mm 3 mps 728 mmHg 11%
    13:00 +42°C° 0 mm 3 mps 727 mmHg 10%
    14:00 +43°C° 0 mm 3 mps 726 mmHg 9%
    15:00 +43°C° 0 mm 3 mps 725 mmHg 8%
    16:00 +40°C° 0 mm 3 mps 725 mmHg 10%
    17:00 +38°C° 0 mm 2 mps 725 mmHg 11%
    18:00 +35°C° 0 mm 2 mps 725 mmHg 12%
    19:00 +34°C° 0 mm 2 mps 726 mmHg 13%
    20:00 +32°C° 0 mm 2 mps 726 mmHg 14%
    21:00 +30°C° 0 mm 2 mps 726 mmHg 15%
    22:00 +29°C° 0 mm 2 mps 727 mmHg 16%
    23:00 +28°C° 0 mm 2 mps 727 mmHg 17%
    Show more